Location: Collingbourne Kingston
(51.3000°N, 1.6500°W)
Time: 04:23:41
(UTC+00:00)

Daily predictions for brighter satellites

Satellite Brightness Start Highest point End
(mag) Time Altitude Azimuth Time Altitude Azimuth Time Altitude Azimuth
Cosmos 2333 Rocket 4.4 00:01:16 10° W 00:05:52 24° NW 00:10:28 10° NNE
Cosmos 2219 Rocket 4.3 00:03:18 10° W 00:07:57 25° NW 00:12:37 10° NNE
ATLAS CENTAUR R/B 3.7 00:07:30 13° SW 00:12:43 76° SE 00:28:01 10° ENE
Cosmos 1825 4.1 00:13:02 14° SE 00:15:01 20° E 00:17:47 10° NE
Cosmos 1328 4.3 00:13:42 23° SW 00:15:51 50° WNW 00:19:40 10° N
Cosmos 1812 Rocket 3.7 00:12:51 10° NNW 00:17:09 60° W 00:19:25 26° SSW
Cosmos 990 Rocket 4.2 00:13:18 10° NNW 00:18:32 68° ENE 00:22:38 16° SE
Cosmos 1408 3.6 00:19:18 23° SE 00:20:58 35° E 00:24:22 10° NNE
SL-16 R/B 2.2 00:19:56 21° SSW 00:23:54 86° ESE 00:29:37 10° NNE
Cosmos 1656 Rocket 4.3 00:18:24 10° NNW 00:24:01 55° NE 00:29:35 10° SE
Cosmos 2221 4.2 00:20:56 10° N 00:24:40 28° ENE 00:28:21 10° SE
Cosmos 405 Rocket 4.1 00:23:36 18° SE 00:25:22 26° E 00:28:29 10° NE
X-37B 3.1 00:28:46 11° ESE 00:28:46 11° ESE 00:28:57 10° ESE
USA 229 DEB 4.0 00:22:35 22° S 00:26:27 46° ESE 00:32:55 10° NE
USA 229 4.1 00:22:43 22° S 00:26:33 46° ESE 00:33:01 10° NE
Cosmos 2237 Rocket 3.3 00:21:44 10° WSW 00:27:03 42° NW 00:32:24 10° NNE
Cosmos 1898 Rocket 3.7 00:26:34 10° NNW 00:31:50 71° ENE 00:36:11 15° SE
Cosmos 1937 Rocket 4.1 00:26:49 10° NNW 00:32:05 55° ENE 00:37:18 10° SE
Cosmos 2369 Rocket 2.2 00:28:28 10° NNW 00:34:14 89° ENE 00:38:58 16° SSE
NOSS 3-1 (C) 3.3 00:31:11 21° SSW 00:34:58 71° SE 00:41:23 10° NE
ATLAS 3B R/B 4.3 00:29:46 10° W 00:35:50 35° NNW 00:42:08 10° NE
SJ 16-02 2.1 00:34:00 10° NW 00:38:04 38° WSW 00:40:01 24° SSW
FALCON 9 DEB 3.4 00:34:57 10° W 00:38:04 60° N 00:41:10 10° E
Cosmos 1356 3.8 00:37:29 29° SSE 00:38:53 51° E 00:42:12 10° NNE
CREW DRAGON DEMO-1 DEB 4.3 00:40:05 17° ESE 00:40:05 17° ESE 00:41:02 10° E
GP-B 3.6 00:35:00 10° N 00:39:19 50° W 00:41:51 23° SSW
NOSS 2-3 (E) 3.6 00:42:31 25° SSW 00:44:56 67° SE 00:49:53 10° NE
NOSS 3-1 (A) 3.6 00:42:41 23° S 00:46:00 52° ESE 00:52:11 10° NE
USA 215 3.4 00:40:02 10° ENE 00:46:35 78° NNW 00:53:07 10° WSW
Cosmos 2263 4.2 00:42:10 10° NNW 00:47:54 85° ENE 00:53:07 12° SSE
Cosmos 1825 Rocket 3.6 00:45:41 25° SSW 00:48:15 85° W 00:52:44 10° N
CZ-4 R/B 4.5 00:46:07 10° NNE 00:50:36 44° E 00:53:33 20° SSE
Cosmos 1932 4.4 00:46:54 10° NW 00:53:10 83° SW 00:59:21 10° SE
FALCON 9 DEB 3.3 00:52:06 10° WNW 00:55:11 64° N 00:58:15 10° E
CZ-3B R/B 3.5 00:42:37 10° W 00:56:01 64° N 00:59:40 10° E
Cosmos 1606 4.0 00:57:17 10° N 01:00:52 36° ENE 01:04:12 11° SE
FALCON 9 DEB 3.3 00:58:51 10° WNW 01:01:58 63° N 01:05:04 10° E
Helios 1A 3.0 01:00:06 19° SSE 01:03:01 82° ENE 01:07:14 10° NNW
Cosmos 468 Rocket 4.0 01:00:57 22° SSW 01:04:18 74° ESE 01:09:33 10° NNE
FALCON 9 DEB 3.2 01:02:20 10° WNW 01:05:27 66° N 01:08:33 10° E
SL-16 R/B 3.1 01:00:58 10° SE 01:07:00 56° ENE 01:13:01 10° N
Cosmos 372 Rocket 4.5 01:01:53 10° NNW 01:07:06 62° ENE 01:12:18 10° SE
Cosmos 858 Rocket 4.5 01:04:12 10° NNW 01:09:31 85° WSW 01:14:05 14° SSE
Cosmos 1953 Rocket 3.6 01:10:29 23° SSW 01:13:10 73° WNW 01:17:36 10° N
Lacrosse 4 Rocket 2.3 01:09:13 10° NNW 01:13:14 48° NE 01:17:10 10° ESE
Cosmos 1869 4.4 01:15:15 10° NNW 01:18:57 33° W 01:21:00 20° SW
Cosmos 2098 Rocket 3.7 01:15:08 17° S 01:19:08 59° E 01:23:24 10° NNE
BREEZE-M R/B 4.2 01:18:11 16° SSE 01:19:12 17° SE 01:22:05 10° E
Cosmos 1763 Rocket 3.4 01:15:44 21° SSW 01:19:14 88° WNW 01:24:26 10° NNE
Cosmos 1437 Rocket 2.7 01:16:04 10° NNW 01:19:58 71° W 01:22:18 22° S
Resurs 1-4 Rocket 3.0 01:15:01 10° NNE 01:20:06 42° E 01:24:23 14° SSE
USA 267 4.2 01:19:19 18° S 01:22:36 27° SW 01:27:59 10° WNW
Cosmos 1892 3.6 01:21:02 19° SW 01:23:20 38° WNW 01:27:00 10° N
SL-4 R/B 1.7 01:20:41 10° W 01:24:30 84° N 01:28:05 10° E
In-Cosmos 22 Rocket 4.5 01:20:44 18° SSW 01:24:45 57° WNW 01:30:09 10° N
NOSS 2-3 (D) 3.9 01:22:27 15° SW 01:25:54 71° NW 01:31:02 10° NE
Cosmos 1943 Rocket 3.5 01:22:48 10° NW 01:26:57 22° WSW 01:29:31 16° SW
Cosmos 1842 Rocket 3.5 01:25:42 10° NNW 01:30:04 76° W 01:33:15 18° S
ADEOS II 3.7 01:27:07 10° NE 01:31:33 27° E 01:35:57 10° SSE
EO 1 Del DPAF 4.2 01:29:06 10° N 01:32:32 36° WNW 01:34:57 17° SW
Lacrosse 5 rocket 2.6 01:29:52 10° WNW 01:33:15 38° NNE 01:36:40 10° E
Meteor 2-8 Rocket 4.4 01:27:15 10° NNW 01:33:25 82° W 01:38:53 14° S
USA 306 4.2 01:32:05 18° S 01:33:58 25° SE 01:37:28 10° E
FALCON 9 DEB 3.1 01:31:32 10° WNW 01:34:52 53° SSW 01:38:11 10° SE
Exosat Rocket 3.8 01:30:27 17° SSW 01:35:30 80° WNW 01:40:40 10° NNE
Cosmos 921 Rocket 3.5 01:32:38 18° S 01:35:31 50° ESE 01:39:36 10° NNE
Cosmos 1943 3.2 01:33:25 18° SSW 01:37:40 83° ESE 01:43:22 10° NNE
CZ-2D R/B 2.5 01:33:45 10° NNE 01:38:54 57° E 01:43:15 14° S
MOZ.5/SAFIR/RUBIN 5/SL-8 4.0 01:38:05 18° S 01:41:34 56° W 01:46:16 10° NNW
NOSS 2-3 (C) 4.3 01:38:43 11° WSW 01:42:51 55° NW 01:48:03 10° NE
Cosmos 1603 3.7 01:41:52 17° SSW 01:46:23 84° WNW 01:52:05 10° NNE
Cosmos 2151 3.9 01:44:56 11° SSE 01:48:40 42° E 01:52:40 10° NNE
Cosmos 1825 3.0 01:47:48 18° SW 01:50:14 39° WNW 01:53:49 10° N
Cosmos 1076 Rocket 3.5 01:49:45 16° S 01:53:04 80° E 01:57:20 10° NNE
Cosmos 1437 2.2 01:51:09 10° NNW 01:53:57 76° W 01:55:51 18° S
Cosmos 1408 4.4 01:53:33 12° WSW 01:56:03 21° WNW 01:58:56 10° NNW
Cosmos 1242 Rocket 3.0 01:54:11 10° NNW 01:57:38 45° W 02:00:05 17° SSW
Cosmos 540 Rocket 3.5 01:55:00 16° SSW 01:59:06 74° WNW 02:04:15 10° NNE
Cosmos 405 Rocket 4.0 01:58:43 14° WSW 02:01:16 27° WNW 02:04:29 10° N
Cosmos 2221 3.3 01:58:21 10° NNW 02:02:17 35° W 02:05:13 16° SSW
X-37B 1.7 02:01:04 18° SW 02:02:30 24° S 02:05:10 10° SE
Cosmos 2058 3.7 02:00:33 16° SW 02:03:30 40° WNW 02:07:24 10° N
BREEZE-M DEB (TANK) 1.3 02:02:21 10° W 02:05:08 54° S 02:07:22 10° ESE
Cosmos 841 Rocket 3.6 02:03:07 15° SSW 02:07:25 73° WNW 02:12:35 10° NNE
SL-16 R/B 4.0 02:04:06 10° W 02:08:45 25° NW 02:13:25 10° NNE
Cosmos 1553 Rocket 4.4 02:02:37 10° N 02:08:57 67° ENE 02:15:07 10° SSE
NOSS 2-2 (E) 3.3 02:08:03 17° SSW 02:10:35 58° SE 02:14:26 10° NE
CREW DRAGON DEMO-1 DEB 2.1 02:10:06 11° W 02:12:25 87° S 02:14:52 10° E
Cosmos 2292 Rocket 4.0 02:10:07 10° SSE 02:12:51 34° E 02:15:38 10° NNE
FALCON 9 DEB 2.7 02:10:44 10° WNW 02:13:52 77° SSW 02:17:00 10° ESE
Cosmos 1782 3.6 02:11:43 10° N 02:15:39 51° ENE 02:19:34 10° SSE
USA 229 DEB 4.2 02:10:52 10° WSW 02:17:18 57° NW 02:24:15 10° NE
USA 229 4.2 02:10:58 10° WSW 02:17:24 58° NW 02:24:21 10° NE
USA 307 3.5 02:14:12 15° SSW 02:17:28 43° SE 02:21:30 10° ENE
Cosmos 2369 Rocket 3.8 02:13:45 10° WNW 02:17:29 18° W 02:20:43 12° SW
Cosmos 1271 Rocket 4.2 02:14:00 10° N 02:17:30 36° ENE 02:21:00 10° SE
USA 281 3.6 02:13:03 10° SE 02:19:33 68° ENE 02:26:06 10° NNW
ARGOS Delta rocket 4.5 02:16:02 10° N 02:21:25 58° WNW 02:26:25 12° SSW
Cosmos 2026 Rocket 4.1 02:16:00 11° S 02:22:05 83° W 02:28:30 10° N
Aureole 3 Rocket 3.7 02:20:25 10° NNW 02:24:01 39° W 02:28:38 10° SSW
NOSS 2-2 (C) 3.3 02:21:26 14° SSW 02:24:16 60° SE 02:28:02 10° NE
CZ-4C R/B 4.2 02:23:15 10° SE 02:26:33 44° ENE 02:29:54 10° N
Helios 1B rocket 2.5 02:22:35 10° N 02:26:41 69° WNW 02:30:26 12° SSW
USA 215 4.0 02:22:57 10° ENE 02:29:18 55° N 02:35:38 10° WNW
NOSS 3-2 (A) 4.4 02:22:12 10° NW 02:29:25 71° NE 02:37:46 10° SE
Cosmos 1328 Rocket 4.4 02:25:21 10° N 02:29:38 52° ENE 02:33:54 10° SSE
Cosmos 1633 3.1 02:27:25 13° SW 02:30:18 43° WNW 02:33:43 10° N
FALCON 9 DEB 3.0 02:27:46 10° WNW 02:30:46 50° SSW 02:33:45 10° SE
SL-19 R/B 4.2 02:26:00 10° NNE 02:31:17 88° WNW 02:36:43 10° SSW
Cosmos 2298 Rocket 4.1 02:27:05 10° NNW 02:32:23 65° WSW 02:37:40 10° S
ATLAS 5 CENTAUR R/B 1.5 02:29:34 12° SW 02:33:12 72° SE 02:37:44 10° NE
USA 308 3.2 02:29:31 12° SW 02:33:21 52° SSE 02:37:29 10° ENE
SeaSat 1 4.0 02:31:06 10° NE 02:35:19 28° ESE 02:39:31 10° SSE
Cosmos 1606 4.2 02:33:22 10° NW 02:36:22 22° W 02:39:10 11° SW
Cosmos 1814 Rocket 4.2 02:32:04 11° SW 02:37:00 62° WNW 02:42:09 10° NNE
NOSS 3-1 (A) 4.3 02:31:30 10° WSW 02:37:01 48° NNW 02:43:36 10° NE
FALCON 9 DEB 2.9 02:34:36 10° WNW 02:37:40 54° SSW 02:40:43 10° SE
FALCON 9 DEB 3.1 02:38:02 10° WNW 02:41:02 45° SSW 02:44:00 10° SE
ADEOS Rocket 3.4 02:35:16 10° S 02:42:27 64° WSW 02:48:57 10° NNW
Cosmos 1933 3.7 02:38:55 10° NNW 02:42:53 49° W 02:46:50 10° S
IRIDIUM 104 4.3 02:38:03 10° N 02:43:18 79° W 02:48:31 10° S
Cosmos 2150 Rocket 4.1 02:38:50 10° NNW 02:43:55 56° WSW 02:49:02 10° S
USA 290 2.9 02:44:01 10° SW 02:47:03 43° WNW 02:50:10 10° NNE
Cosmos 1570 Rocket 4.4 02:42:13 10° SW 02:47:20 53° WNW 02:52:29 10° NNE
Meteor 1-28 Rocket 3.3 02:47:08 10° S 02:50:52 59° W 02:54:40 10° NNW
SL-16 R/B 3.4 02:45:26 10° SSW 02:50:54 32° W 02:56:23 10° NNW
USA 305 3.0 02:46:53 10° SW 02:51:07 68° SSE 02:55:21 10° ENE
Lacrosse 4 Rocket 2.5 02:48:21 10° WNW 02:51:39 24° WSW 02:54:54 10° SSW
Cosmos 1125 Rocket 3.6 02:46:39 10° NNW 02:51:50 59° WSW 02:57:00 10° S
DELTA 2 DEB (DPAF) 4.3 02:47:32 10° S 02:51:55 58° WSW 02:56:19 10° NNW
IRIDIUM 114 4.4 02:47:15 10° N 02:52:27 67° W 02:57:36 10° S
Cosmos 1151 Rocket 3.0 02:49:04 10° NNW 02:53:20 75° W 02:57:34 10° S
Meteor 1-29 3.3 02:53:28 10° N 02:56:50 53° WNW 03:00:08 10° SSW
Cosmos 2266 Rocket 4.4 02:51:51 10° S 02:57:51 63° E 03:03:49 10° NNE
ARIANE 5 R/B 3.6 02:54:32 10° NNE 02:59:17 41° E 03:04:01 10° S
Resurs 1-4 Rocket 3.1 02:55:02 10° N 02:59:51 36° WNW 03:04:39 10° SW
Cosmos 1515 Rocket 4.2 02:56:24 10° N 03:00:48 62° ENE 03:05:11 10° SSE
CZ-4C R/B 3.4 02:57:58 10° S 03:02:21 33° ESE 03:07:30 10° NE
Landsat 4 4.1 03:00:15 10° N 03:03:58 53° WNW 03:07:39 10° SSW
SL-4 R/B 1.6 03:00:25 10° W 03:04:02 66° SSW 03:07:28 10° ESE
Cosmos 1766 Rocket 3.6 03:00:17 10° S 03:04:44 85° W 03:09:16 10° N
USA 238 DEB 4.1 03:00:21 10° NW 03:07:34 82° NE 03:15:09 10° SE
USA 238 4.1 03:00:28 10° NW 03:07:40 81° NE 03:15:15 10° SE
CENTAUR R/B 3.4 03:00:06 10° NW 03:08:02 81° NE 03:16:54 10° SE
